Find Starlink 11367

NORAD ID: 62097 Int'l Des: 2024-220 Owner: SPXS Country: US Constellation: starlink operational
LEOCIRCULAR

实时位置

正在加载3D地球...

关于 Starlink 11367

正在加载描述...

即将过境

Passes for default location (London). Set your location on the main map for personalized predictions.

高度历史

Loading altitude history...

两行轨道根数

1 62097U 24220K 26127.23186084 .00151393 00000-0 11609-2 0 9995
2 62097 43.0002 49.9021 0001839 234.7847 125.2849 15.70862454 84269
Epoch: May 7, 2026 • Age: 8 hours

当前状态

高度 356.1 km
速度 7.70 km/s
星下点 13.33°N, 1.96°W
发射日期 Nov 25, 2024
运行时间 1.4 years
类型 internet

技术详情

分类 Payload
质量 960.00 kg
干质量 910.00 kg
总质量 960.00 kg
长度 0.30 m
直径 4.10 m
跨度 29.00 m
形状 Box + pan
制造商 SPXS
平台类型 Starlink V2MD
阶段状态 In Orbit
所有者/国家 SPXS/US

Most Searched